RH
14 21 29 32 36 26 21 17 8 11 22 37 34 47 61 62 71 90 96 81 90 82 67 45 46 51 79 76 65 58 65 69 71 76 78 71 66 68 59 66 71 79 51 31 28 26 34 41 52
9 22 28 26 23 22 20 14 17 27 39 38 42 48 46 61 79 92 83 91 94 86 76 51 49 51 68 84 76 73 71 73 73 76 72 60 54 59 52 66 76 81 61 36 40 35 28 27 28
11 22 29 31 23 16 16 11 15 24 38 37 41 46 47 56 70 86 86 93 93 90 92 80 71 68 59 62 76 78 77 76 72 61 50 44 43 52 57 60 78 83 84 56 40 46 42 28 23
32 28 22 20 18 11 11 13 14 14 40 39 44 50 50 65 74 89 97 91 88 94 97 90 68 69 66 64 64 64 70 68 70 60 52 49 66 72 62 64 76 82 81 76 64 45 50 46 29
24 23 27 20 16 9 10 10 12 15 19 30 42 44 55 76 90 85 88 95 90 97 95 86 72 76 78 76 70 70 72 77 76 76 73 64 55 57 60 63 72 80 82 80 78 79 62 58 49
27 15 24 22 13 10 12 12 12 13 19 33 38 39 55 68 86 84 87 80 79 89 94 82 79 81 81 83 83 82 81 81 81 80 77 71 59 61 66 69 69 74 78 74 76 76 76 66 67
29 28 25 16 12 11 16 15 15 16 14 27 34 37 55 58 90 92 94 90 91 96 93 87 84 77 75 78 78 78 80 80 80 83 83 84 81 74 71 73 73 72 72 72 76 76 74 72 75
26 25 18 15 15 15 17 16 17 16 23 31 29 36 52 55 74 90 86 97 97 96 94 94 91 87 88 87 87 88 81 74 73 70 73 80 80 80 85 82 78 74 73 73 74 72 74 76 70
24 35 28 15 12 15 15 16 18 17 17 24 32 40 46 50 55 64 71 81 92 92 84 72 60 67 83 81 84 65 66 79 80 72 70 87 93 96 90 80 81 83 82 80 77 74 74 78 75
26 36 21 13 14 18 18 16 17 18 16 20 23 38 44 47 48 41 40 40 42 38 36 34 31 28 32 29 32 49 50 87 88 71 76 88 65 88 96 67 86 84 88 87 86 86 81 76 77
22 28 18 15 26 26 20 18 18 18 22 17 18 33 44 49 52 53 54 52 51 40 31 29 30 34 34 28 35 34 30 48 72 91 93 98 98 97 90 82 83 89 87 89 91 83 91 88 86
26 19 18 19 26 27 23 23 20 19 19 18 19 28 41 47 48 48 50 52 36 32 29 28 30 32 36 49 52 51 41 49 36 33 40 47 66 50 63 80 76 57 52 53 51 62 81 97 95
28 23 22 22 27 27 25 26 25 21 20 20 20 33 40 45 44 40 44 48 35 32 30 32 34 36 39 40 42 38 35 32 29 24 24 24 24 24 24 29 38 66 65 43 32 29 33 34 63
29 28 27 24 24 24 26 24 24 18 20 22 30 35 38 43 39 39 44 43 36 29 31 33 36 35 32 29 27 24 23 22 21 20 19 18 18 18 20 21 23 24 28 27 30 25 24 24 19
28 35 29 27 25 27 25 29 26 19 22 22 32 35 38 40 37 40 41 45 36 31 30 31 30 29 27 24 22 21 19 18 17 17 16 17 17 18 18 18 19 20 19 22 26 29 36 31 28
26 26 30 26 26 27 26 29 20 17 21 21 30 35 39 34 35 37 40 44 47 33 32 29 28 27 25 24 23 20 19 19 20 22 23 20 22 20 21 22 24 24 26 26 27 28 30 40 50
29 38 25 28 26 25 29 27 19 18 18 19 26 31 33 32 34 37 40 44 42 38 31 30 29 28 28 27 23 19 20 21 22 22 22 23 23 24 25 27 29 33 30 33 33 40 38 30 43
34 28 21 18 28 29 33 34 24 20 19 19 22 25 28 31 34 40 41 47 42 38 33 32 31 30 30 28 22 22 22 21 21 21 21 21 23 24 26 30 34 38 42 49 68 64 45 40 36
30 29 27 21 25 30 33 31 25 18 20 20 18 21 26 28 34 41 43 48 48 43 29 32 33 32 32 24 22 22 22 21 22 23 26 27 31 31 33 36 39 45 53 60 72 84 75 69 50
28 30 35 27 22 28 33 31 24 21 20 20 19 19 23 27 35 43 46 49 48 38 39 35 36 34 31 22 22 22 22 23 22 25 29 32 37 38 42 42 45 53 62 64 70 82 96 99 99
34 31 29 30 28 24 32 39 32 22 18 18 19 18 19 26 36 46 49 49 45 42 38 38 37 36 29 25 25 24 24 28 31 30 32 34 38 43 47 50 54 60 74 86 91 89 91 91 92
47 38 36 37 46 71 26 69 25 17 19 20 20 18 18 25 35 46 52 55 54 46 44 40 39 37 26 25 26 27 26 26 27 29 33 39 42 46 50 54 56 59 64 70 85 98 99 96 93
40 38 40 44 62 62 49 69 35 16 22 22 23 19 18 24 35 47 54 56 60 54 45 44 42 35 27 26 28 29 30 29 30 35 42 47 52 58 59 59 59 62 65 71 77 82 82 92 95
37 38 40 53 72 94 60 43 38 23 22 26 24 20 20 25 34 44 53 58 65 63 54 47 42 32 30 30 30 29 30 30 30 37 45 55 62 77 92 84 64 64 65 66 68 70 94 100 97
46 48 86 91 92 84 30 40 31 28 27 28 28 23 23 24 32 44 54 61 67 66 59 49 38 32 32 33 33 31 28 27 30 41 50 54 60 71 95 86 73 66 65 65 64 64 68 79 98
55 47 86 87 83 66 30 47 28 28 29 29 31 32 28 28 29 44 54 62 65 72 62 46 35 31 34 34 32 25 23 29 36 42 52 64 83 80 97 84 72 68 76 79 96 85 77 82 97
45 67 40 60 46 72 45 27 31 31 36 35 40 41 40 36 33 49 60 64 75 78 61 41 34 35 34 32 28 29 33 39 49 55 64 92 100 100 98 80 71 68 69 76 80 74 87 88 80
53 42 64 63 86 71 48 33 56 44 43 39 45 47 45 44 56 60 66 76 79 76 58 40 38 35 33 28 30 36 38 44 55 66 72 92 100 95 84 78 70 70 77 79 80 86 95 97 76
64 59 54 57 76 91 81 47 37 44 44 42 42 48 49 55 59 65 73 78 78 69 51 41 38 35 32 34 38 41 44 49 59 77 77 99 94 83 78 71 68 73 72 81 95 97 100 99 99
49 51 45 83 64 82 81 61 37 38 39 38 40 48 51 55 60 68 74 76 76 72 54 42 40 38 38 42 46 50 55 59 70 83 83 99 84 80 73 68 72 76 77 98 100 99 100 100 100
Wind_Speed
3 6 4 1 1 2 5 4 3 5 2 7 7 7 7 16 5 4 8 10 9 6 5 10 11 10 10 10 10 10 10 9 8 8 9 8 7 6 5 5 8 6 6 7 9 9 8 8 7
4 3 3 4 1 3 2 8 10 9 12 7 2 9 5 6 14 11 8 9 11 5 3 8 10 10 10 9 10 9 9 8 7 7 6 5 6 5 5 5 6 6 5 6 7 8 7 7 6
6 3 3 2 3 3 1 6 8 6 5 9 2 5 6 5 5 5 5 10 10 11 12 6 10 10 9 9 9 8 7 7 6 5 5 5 5 4 4 4 5 6 4 4 4 5 6 6 5
0 3 4 1 7 4 5 8 9 7 5 2 8 8 7 5 3 5 8 11 10 10 12 10 10 9 9 8 8 8 7 7 6 5 5 5 6 4 3 3 4 5 5 2 1 2 3 4 5
7 5 3 4 8 5 8 9 4 8 4 3 2 7 7 5 3 5 9 9 10 9 9 11 10 10 10 9 9 8 7 6 5 5 5 4 4 4 4 3 4 5 5 2 1 1 1 1 3
5 4 3 3 7 7 8 11 6 6 6 6 3 6 5 4 4 3 9 8 10 9 7 10 9 8 8 8 8 7 7 6 6 6 5 5 5 4 3 3 3 4 5 4 3 2 2 2 1
3 2 5 5 6 2 5 7 6 9 4 5 3 3 10 4 7 8 8 9 11 9 6 6 6 7 7 7 7 7 7 7 7 6 5 4 5 5 4 4 4 5 5 5 5 4 4 4 4
4 2 5 5 2 1 4 6 2 7 5 3 2 4 8 11 10 9 7 7 7 7 7 5 4 4 3 5 5 6 7 8 8 5 3 3 5 6 5 5 5 4 5 5 5 6 6 6 6
5 2 5 3 3 4 7 4 3 4 5 2 5 7 14 13 11 11 10 11 9 7 7 5 5 3 3 4 5 5 1 11 8 3 9 8 5 9 7 5 5 6 6 6 6 7 8 8 9
2 3 6 5 6 4 9 1 9 0 7 4 4 4 8 9 11 10 9 9 8 8 6 5 4 5 5 3 3 5 3 7 11 9 6 7 12 12 5 4 5 7 6 7 8 9 10 10 10
2 3 6 6 8 7 7 7 5 4 6 1 13 14 12 11 10 7 6 6 8 6 6 5 5 6 6 6 7 5 4 5 6 6 6 4 2 2 2 1 5 5 6 6 8 9 10 11 10
3 8 4 7 4 5 6 9 7 10 8 2 3 9 15 13 12 12 11 9 7 6 5 5 6 6 10 11 10 8 7 5 4 5 6 8 8 6 6 6 7 7 8 9 9 9 10 9 11
7 7 6 7 6 8 10 9 10 13 7 5 3 12 15 15 10 9 8 7 7 6 7 7 9 10 11 13 12 10 8 6 4 3 4 4 5 4 4 7 7 7 9 8 9 9 10 11 11
6 8 12 9 8 6 5 11 2 5 11 7 9 12 14 14 14 9 9 7 6 7 10 12 11 12 11 11 10 9 7 5 3 1 1 2 4 4 5 6 7 7 10 10 11 10 10 12 13
6 5 8 14 9 4 2 8 10 13 6 10 12 14 16 15 13 11 9 8 7 9 12 14 15 15 14 11 9 6 3 1 1 1 2 4 6 6 7 9 9 11 12 12 11 12 11 11 11
4 4 3 4 6 4 3 7 7 8 7 13 15 17 17 16 13 12 13 10 10 13 16 17 16 13 10 7 5 4 3 2 2 2 4 5 6 7 8 9 10 12 13 13 14 14 14 14 13
4 3 7 4 8 2 6 6 5 6 9 13 17 18 19 17 15 14 15 16 12 15 16 16 13 10 6 4 2 2 3 3 3 4 6 7 8 9 10 11 12 13 13 12 15 14 18 17 15
6 6 6 5 5 4 6 11 10 12 12 15 18 21 21 21 20 18 17 17 18 16 14 12 10 7 4 1 2 2 3 4 5 7 8 9 10 11 11 11 12 12 11 10 12 17 16 17 19
4 7 9 9 4 0 6 9 11 14 18 15 19 23 23 22 20 21 21 19 19 18 17 12 9 5 2 1 1 3 5 7 8 8 8 10 11 12 11 11 12 11 11 11 11 14 18 17 18
7 8 9 9 3 2 7 12 11 10 13 24 22 21 26 23 25 24 24 26 23 19 16 14 10 6 3 2 2 4 6 8 9 11 12 11 12 13 12 12 12 11 12 12 12 11 12 14 12
7 7 8 8 8 5 8 10 11 13 24 22 26 24 25 29 30 28 27 26 24 22 19 15 11 7 3 2 3 5 7 8 9 12 13 14 14 13 14 13 13 12 11 12 11 12 12 13 13
4 5 6 6 4 3 3 5 6 11 10 9 22 23 21 30 31 29 28 25 25 23 20 16 12 8 4 2 4 6 8 10 12 14 13 13 13 13 13 13 13 14 14 14 13 11 12 12 16
1 4 4 4 4 4 3 2 6 4 4 6 11 20 21 27 31 29 27 24 23 22 20 16 11 7 4 1 3 6 9 11 13 13 13 12 12 13 13 11 11 11 11 13 15 16 16 16 16
4 4 6 2 1 2 9 7 4 2 5 4 11 10 16 22 27 27 26 24 22 20 18 15 10 6 3 1 4 8 11 13 14 14 13 12 10 9 11 12 12 12 12 14 14 14 15 16 18
3 4 3 3 2 6 4 1 8 6 7 6 7 9 4 17 24 29 29 27 25 21 18 14 10 6 3 1 5 9 11 13 14 14 14 14 12 11 10 12 15 15 15 16 17 16 16 15 18
6 4 3 5 2 3 1 4 4 6 9 7 4 4 6 3 24 30 31 29 23 20 17 14 10 6 2 3 6 9 12 14 14 15 14 13 13 13 12 14 14 15 16 17 16 19 16 16 18
2 3 1 3 4 2 5 6 4 5 6 9 6 3 2 6 8 28 30 24 19 18 16 13 9 6 2 2 6 10 12 13 14 15 15 14 12 12 14 14 15 17 18 19 18 18 19 18 18
3 3 2 2 3 5 5 5 2 6 6 5 5 5 3 5 21 24 23 21 19 19 16 13 9 5 1 3 7 11 14 14 15 14 13 13 12 12 14 15 17 20 19 20 18 17 17 17 13
4 3 4 0 2 3 3 2 3 6 5 4 6 9 8 13 19 22 20 18 19 17 15 12 8 4 0 5 8 12 14 16 17 13 14 12 13 13 15 16 19 19 19 19 17 17 17 16 16
2 5 9 4 5 4 3 5 5 5 4 6 6 10 10 11 13 16 18 19 17 15 13 10 7 3 2 6 10 12 14 16 18 14 13 13 13 14 14 18 20 18 20 17 14 13 14 15 17
Wind_Direction
66 22 46 299 354 206 259 62 34 14 50 21 356 4 99 43 13 63 113 121 126 170 158 156 151 150 139 134 140 147 146 146 145 144 138 138 135 133 131 122 136 125 90 90 86 88 91 92 99
81 69 46 284 229 284 43 27 28 31 35 4 327 338 48 80 60 109 121 115 129 140 175 158 158 160 153 144 142 148 148 150 148 146 144 147 153 156 143 138 144 145 103 102 90 86 82 83 86
75 87 274 223 241 307 356 54 40 73 62 338 18 65 8 33 46 85 149 142 141 136 156 164 161 159 159 156 153 151 150 151 155 150 154 152 151 150 155 156 169 169 128 120 102 90 78 70 71
38 283 257 281 287 340 49 28 37 313 106 283 328 96 79 16 140 127 145 156 147 138 163 168 165 165 162 161 160 160 157 156 149 144 149 153 151 162 155 157 161 177 176 146 146 85 75 65 59
351 279 262 222 255 57 42 52 343 301 258 60 69 90 84 71 87 141 138 160 165 161 179 177 166 168 170 171 174 178 174 175 171 165 169 173 171 181 178 172 173 186 199 206 192 230 27 50 52
277 250 290 291 354 34 67 33 331 288 39 71 283 122 90 148 143 134 170 169 183 172 157 165 167 171 172 175 181 184 182 184 185 179 188 199 202 195 192 190 196 205 217 226 235 240 250 269 256
262 323 268 332 296 33 55 8 352 344 298 15 30 17 129 165 137 151 153 183 166 158 150 147 174 184 197 199 203 206 201 198 189 184 186 206 215 213 211 218 224 229 229 236 241 253 267 273 258
308 291 274 241 29 350 57 341 3 297 46 47 52 17 162 170 150 148 135 154 159 161 174 175 189 199 199 233 234 228 220 218 208 198 214 241 255 238 223 215 222 239 245 249 255 264 266 274 262
301 284 265 2 22 13 109 340 147 279 298 32 63 52 137 169 160 148 135 130 144 144 143 153 151 157 206 233 252 186 212 224 193 214 254 261 246 252 217 237 241 243 248 254 259 262 268 273 266
270 299 340 24 5 351 339 294 311 167 229 173 152 124 168 165 160 152 143 136 136 142 150 159 152 143 163 142 129 107 102 170 213 214 236 259 237 260 261 292 274 259 259 265 266 267 267 268 271
279 258 20 22 22 349 321 295 232 282 273 245 192 170 185 165 161 147 152 164 175 177 181 184 169 146 142 126 110 123 132 131 148 152 140 130 158 129 17 305 249 254 248 258 264 270 272 266 257
291 249 336 338 31 320 298 343 282 238 255 260 74 187 177 175 177 171 175 189 200 194 186 184 172 168 138 134 139 146 144 142 149 168 195 211 215 220 214 197 252 273 268 265 269 271 270 261 250
230 301 355 288 295 279 285 278 266 292 254 229 175 168 171 173 184 176 181 192 207 199 165 155 149 150 151 151 146 143 141 141 152 163 185 217 255 255 256 247 244 235 278 285 277 269 268 268 256
6 312 293 290 268 266 272 286 163 276 222 179 173 171 174 175 172 181 190 186 196 178 159 153 147 144 139 137 132 119 119 119 122 119 268 275 273 270 257 268 267 263 262 268 275 280 277 276 278
284 299 281 223 229 261 352 277 228 243 195 187 180 176 173 175 179 186 178 175 186 167 158 147 142 136 132 126 118 107 98 91 27 324 290 285 286 287 284 281 276 268 271 273 272 276 282 282 280
239 231 300 50 134 178 143 279 170 178 192 204 190 176 170 175 181 176 173 177 177 162 154 148 145 141 133 122 98 68 52 36 22 344 327 321 309 296 286 281 283 280 281 278 271 269 262 266 274
251 259 279 178 182 128 183 283 145 192 218 226 194 181 176 180 174 185 175 172 174 167 163 159 154 150 141 125 68 37 63 29 10 336 325 326 313 313 304 298 294 293 294 290 283 281 280 269 262
337 316 317 297 163 181 255 263 272 201 203 242 200 193 185 185 180 179 176 181 164 180 176 172 168 165 160 104 30 32 20 359 345 336 331 325 319 315 314 303 297 297 298 295 300 296 284 275 265
327 296 284 294 125 126 246 259 258 246 194 213 240 198 190 188 183 181 176 180 177 188 183 188 187 190 204 307 4 350 357 356 347 341 340 330 327 321 320 310 305 300 294 287 275 283 298 302 288
294 280 278 280 182 133 272 273 273 255 221 199 223 217 192 187 182 181 181 182 194 193 188 192 196 206 233 277 333 352 1 356 350 350 341 335 330 325 319 314 307 301 293 287 283 281 287 304 313
275 265 276 283 336 284 262 281 250 250 239 207 205 227 204 187 179 182 188 193 189 195 195 199 203 207 234 281 341 359 2 2 347 338 339 335 330 323 315 308 303 295 287 291 289 279 278 286 289
281 15 345 323 330 253 66 286 305 303 220 210 195 210 220 185 185 188 189 193 191 194 196 201 204 209 226 284 347 356 356 352 345 338 337 335 337 331 326 313 304 297 294 290 282 284 285 288 285
269 345 318 331 304 358 270 277 264 306 181 202 187 198 213 189 184 183 187 190 194 198 195 198 201 211 224 278 344 352 347 344 338 332 333 334 341 342 336 333 329 319 311 296 286 279 274 269 273
36 285 234 168 252 317 227 195 283 43 9 42 38 185 205 186 180 181 185 185 192 199 193 191 195 197 208 305 345 345 343 339 335 328 325 324 333 334 328 334 334 331 329 322 312 305 286 283 266
210 293 321 330 356 234 353 269 257 65 41 35 9 359 358 189 180 176 173 180 188 195 186 186 186 188 200 312 343 343 339 335 330 326 317 312 317 319 323 327 330 329 323 316 310 301 296 286 276
185 197 185 252 249 292 333 246 257 88 77 50 30 311 272 252 185 175 175 181 195 187 182 181 186 179 177 347 346 346 340 339 331 328 322 321 323 327 327 320 321 323 314 308 305 307 309 301 288
101 192 350 291 279 321 227 241 53 111 81 67 31 19 298 230 173 170 166 176 185 182 180 181 179 173 172 357 353 349 346 340 332 327 337 330 321 321 311 315 316 318 312 303 296 299 304 303 309
215 345 118 218 257 250 248 241 173 60 43 59 98 106 129 143 147 150 158 167 182 182 180 172 176 174 141 358 346 347 350 345 334 327 329 324 317 308 310 313 314 315 311 303 297 298 303 308 307
175 232 213 301 211 221 316 295 73 70 51 9 105 126 138 128 142 148 157 166 180 183 173 172 169 169 100 343 340 343 345 345 341 330 327 320 308 310 311 311 315 314 317 313 300 295 299 301 300
325 215 201 163 226 200 164 265 95 81 61 56 96 133 153 161 158 159 169 178 179 177 173 171 169 178 346 339 336 338 339 340 333 325 322 314 313 313 311 313 318 319 320 322 311 300 296 306 305